Theta_e
301 302 302 300 299 296 295 295 294 294 294 294 294 294 293 294 293 290 287 287 283 278 277 279 279 275 275 274 270 272 270 265 261 258 260 266 264 265 260 261 264 264 262 260 260 260 257 268 271 267 268 262 262 262
301 302 300 299 297 295 294 294 293 294 293 293 293 293 293 293 293 292 283 286 287 280 278 282 282 282 280 279 275 271 271 268 273 264 262 266 262 264 264 259 268 265 268 266 266 264 269 267 268 265 261 266 264 268
301 301 299 297 294 293 293 293 293 293 293 293 292 292 292 292 292 291 285 284 283 279 277 276 275 280 283 282 283 272 269 276 273 275 272 271 267 266 260 263 267 270 270 268 267 271 270 269 271 267 266 270 272 272
300 298 296 294 293 292 292 292 292 292 292 292 292 291 291 292 292 291 285 286 284 278 272 273 281 276 279 280 280 280 277 278 278 277 273 270 262 272 269 271 269 271 272 270 270 273 272 272 272 274 270 268 272 272
298 296 294 293 292 292 291 291 291 291 291 291 291 291 291 291 291 290 286 285 284 278 267 271 276 278 278 277 277 278 276 275 275 273 271 265 270 271 272 270 268 273 272 270 269 274 272 273 273 275 274 273 273 272
297 294 293 291 291 291 290 290 290 290 290 290 291 291 291 291 291 283 273 278 283 283 275 263 271 266 264 268 270 270 274 275 275 270 271 274 276 274 268 266 271 275 275 274 272 272 273 274 275 275 274 273 273 272
294 293 291 291 290 290 290 289 289 289 289 290 289 289 290 290 285 277 273 279 286 283 275 266 263 268 265 267 263 264 272 278 275 274 274 273 273 276 270 262 272 274 273 273 272 272 271 273 273 273 273 271 270 267
293 291 291 290 290 289 289 289 288 289 289 289 290 289 289 288 283 274 280 288 286 277 271 264 264 265 267 266 266 266 267 272 272 272 273 271 274 274 265 270 272 271 270 268 269 268 270 270 271 270 269 268 266 268
291 291 290 290 289 288 288 288 288 289 288 289 289 288 279 273 270 273 286 286 281 277 265 261 261 260 267 265 265 266 266 265 267 265 268 268 265 265 267 268 268 267 265 266 265 265 265 264 268 266 265 264 266 267
291 290 289 289 288 288 287 287 288 289 288 287 279 271 266 269 285 283 273 275 275 272 269 266 266 266 272 269 266 264 262 262 264 262 264 262 263 266 265 265 264 264 263 261 259 262 261 261 260 263 264 265 268 265
290 289 289 288 288 287 287 288 288 288 285 274 270 267 272 282 272 266 264 267 271 269 272 272 268 266 270 264 264 267 259 255 257 259 260 253 257 264 263 261 258 259 259 259 259 260 259 259 259 261 263 263 262 263
289 289 289 288 288 287 287 288 288 279 275 277 276 274 269 266 261 261 260 266 268 268 266 264 266 267 267 270 265 265 262 259 258 254 255 254 263 263 264 262 261 260 257 256 255 257 258 260 258 257 259 261 262 262
289 289 288 288 288 288 288 288 287 286 279 271 266 264 265 261 260 258 256 261 261 262 259 265 263 265 265 269 264 263 260 259 256 254 255 260 263 265 260 258 258 256 254 254 255 256 254 254 256 252 254 254 259 262
288 288 288 287 287 287 287 287 286 280 270 263 259 258 258 261 265 267 263 261 265 262 263 265 263 262 262 264 262 260 257 256 252 254 257 260 263 261 257 253 250 255 254 252 254 255 250 251 251 256 255 259 264 262
288 287 287 287 288 287 286 286 284 271 265 262 260 257 255 263 261 259 254 258 261 258 261 263 262 267 261 261 263 259 256 255 257 259 261 263 261 254 254 252 253 254 253 252 253 254 251 249 249 250 251 256 261 260
288 287 284 287 287 286 285 282 269 266 262 261 262 260 253 255 256 255 253 256 259 261 259 262 260 261 261 264 261 260 259 258 262 259 261 261 258 254 251 252 254 254 254 253 255 255 250 248 248 247 246 249 249 251
287 281 287 287 286 285 285 270 266 262 263 259 260 251 255 254 259 257 255 260 261 259 258 260 261 261 265 263 260 263 260 263 264 261 260 258 255 254 252 251 252 254 255 255 255 256 250 246 244 250 254 251 246 244
281 282 287 286 281 278 266 267 264 261 261 260 258 259 250 254 253 252 252 253 260 259 258 262 265 260 261 261 260 263 263 262 263 261 260 258 252 250 247 247 250 247 247 250 251 252 254 254 253 251 248 249 250 253
280 282 286 286 279 271 267 268 267 260 261 253 253 252 250 252 253 251 251 253 255 259 261 263 263 259 258 257 259 260 261 260 259 260 261 258 251 248 249 249 247 248 249 246 248 249 249 249 251 250 251 252 253 252
287 286 286 286 280 271 264 263 263 260 256 258 251 251 252 254 250 246 248 251 258 259 259 261 255 252 257 259 259 259 259 259 258 258 257 257 252 250 251 247 249 248 247 248 248 251 252 253 252 252 251 252 252 252
282 280 284 276 269 268 265 261 259 259 254 257 251 251 254 249 250 251 254 257 259 256 254 253 255 255 256 257 258 258 258 257 257 254 251 253 255 250 250 248 246 246 247 246 248 250 252 253 254 253 250 250 251 252
272 281 270 273 268 265 264 261 260 256 255 252 252 249 250 251 251 253 256 255 253 250 252 255 254 253 254 256 257 256 256 256 255 252 252 250 252 251 249 248 246 247 246 247 249 252 253 253 255 255 255 254 254 252
278 274 267 266 263 260 258 256 258 252 255 251 251 253 256 257 257 258 253 251 250 251 251 252 252 254 254 256 257 256 255 254 253 249 246 243 242 242 244 245 245 248 252 253 251 252 254 256 257 257 256 257 254 254
275 268 266 259 257 255 252 253 252 251 251 251 252 255 257 257 258 255 253 246 249 249 249 250 252 254 256 256 256 254 253 253 249 247 244 243 246 247 244 247 247 249 252 252 253 254 256 257 258 258 259 258 256 254
266 261 260 256 250 253 251 250 250 252 250 252 254 253 256 255 255 252 251 248 247 248 250 250 253 253 254 254 254 253 252 252 248 246 247 243 243 245 248 248 249 250 252 253 254 254 256 259 259 259 259 256 254 252
259 256 254 252 250 253 251 249 249 252 253 254 255 254 254 254 253 252 249 247 247 249 251 251 251 251 253 253 252 253 251 251 251 250 249 244 247 249 249 248 249 252 251 251 252 255 258 259 259 258 255 253 253 250
253 252 249 250 253 251 252 255 256 256 255 255 253 254 254 252 250 251 247 249 250 252 253 252 251 251 251 251 251 252 252 252 252 253 253 252 249 248 249 249 250 252 255 255 255 255 255 257 257 253 250 250 249 250
250 247 254 252 253 254 256 254 255 255 254 252 253 254 253 254 250 247 248 252 253 252 251 252 252 251 251 252 252 252 252 251 253 252 251 251 250 250 250 252 254 260 258 257 257 256 256 254 252 251 251 250 250 249
250 248 253 253 255 254 253 253 252 251 251 253 254 254 253 252 248 248 252 253 252 250 250 250 251 251 252 252 252 250 250 251 252 253 252 252 252 253 253 255 255 256 256 256 260 258 255 252 252 253 251 249 249 248
251 248 252 253 254 253 251 251 251 250 252 252 253 253 252 252 252 252 252 251 250 250 250 250 250 251 251 249 250 251 251 252 252 252 253 253 254 253 253 253 254 256 257 255 256 257 262 257 256 251 250 251 251 250
245 246 250 249 249 248 250 249 249 252 252 252 252 252 252 250 252 251 251 250 249 249 249 251 251 250 250 251 250 251 252 253 253 254 253 253 253 253 252 254 256 255 253 252 253 252 251 250 248 249 250 251 251 252
245 247 252 250 250 250 250 252 253 253 252 252 251 251 250 250 251 251 251 251 250 250 252 251 250 250 252 251 249 249 253 253 253 254 253 253 254 253 255 253 250 250 252 252 252 251 249 250 250 251 252 252 252 253
243 244 245 249 251 251 252 254 253 252 252 251 250 248 248 248 252 252 253 252 252 251 251 251 252 251 250 249 249 250 252 252 254 258 260 260 258 256 251 249 250 252 253 252 250 250 250 250 249 251 253 254 255 255
Wind_Speed
22 22 20 14 12 10 10 12 13 14 16 18 18 18 19 20 19 12 6 5 5 11 12 19 19 11 17 13 11 11 6 5 4 2 3 2 3 2 2 3 4 6 6 4 3 3 8 5 4 5 7 2 3 4
23 18 15 11 13 10 11 12 14 15 17 18 20 20 20 21 20 19 7 4 6 9 15 21 23 24 15 19 9 3 5 4 4 1 3 3 3 2 1 3 1 3 5 4 8 7 4 6 6 4 3 4 5 4
20 18 12 13 12 11 12 13 14 16 17 19 20 22 23 23 23 20 8 3 4 7 8 4 9 13 12 15 12 6 3 5 4 5 3 4 5 3 2 5 2 4 4 3 3 4 5 6 5 3 5 4 3 4
18 16 13 11 12 13 12 12 14 16 18 19 22 23 25 24 26 23 8 4 3 4 8 17 6 7 5 9 13 17 19 5 9 4 6 4 3 3 3 2 3 2 4 2 4 7 3 4 5 4 3 3 3 4
18 17 16 13 13 12 12 14 14 17 18 21 24 25 26 27 27 17 3 8 8 5 4 10 8 12 3 4 9 13 13 11 8 5 4 3 3 2 1 1 3 4 5 3 5 6 2 4 2 3 4 5 7 7
21 17 15 12 12 12 12 13 15 17 19 22 25 27 28 27 25 3 5 3 1 5 4 5 5 6 5 4 3 4 7 6 4 3 3 4 4 3 3 3 6 5 4 4 6 2 4 7 6 4 4 6 7 8
19 16 13 13 11 10 11 13 14 18 20 23 27 27 28 30 12 4 7 4 7 1 2 6 6 4 1 3 3 2 2 3 3 3 4 2 3 6 2 3 4 5 6 7 3 2 5 4 6 5 6 4 5 4
17 16 14 11 10 10 11 11 14 18 20 24 26 29 30 21 7 2 2 8 7 1 1 3 7 6 3 3 4 1 2 2 3 2 2 2 1 1 2 3 6 6 9 3 6 3 6 6 6 4 1 4 5 7
18 16 12 11 10 10 11 12 14 17 21 23 27 24 4 4 3 3 21 25 1 4 3 1 2 6 2 3 2 4 2 2 2 2 2 2 2 2 2 4 6 6 3 8 11 10 7 4 7 4 3 2 5 6
17 14 13 11 10 9 10 12 13 17 18 19 6 5 5 3 17 13 5 2 3 2 1 3 1 5 1 3 3 2 2 0 2 2 3 3 3 2 1 4 5 6 6 6 5 7 6 6 4 5 5 3 6 3
17 15 13 12 10 11 10 12 10 16 7 4 3 3 4 12 4 4 2 2 1 4 2 1 3 3 2 0 3 0 2 1 2 4 2 3 4 3 3 5 4 5 6 6 6 6 6 8 10 9 8 5 4 5
17 15 13 12 14 12 11 13 9 3 3 5 6 4 4 5 3 4 1 2 0 2 2 1 3 3 4 0 1 2 1 3 3 2 4 3 4 3 6 7 8 6 7 8 4 7 6 7 6 6 6 7 6 3
15 12 13 13 13 12 11 11 7 8 5 4 5 5 3 3 5 4 4 5 4 3 2 3 4 2 4 0 1 2 1 3 1 4 3 5 3 3 6 6 8 6 6 6 6 3 6 6 4 2 6 5 2 5
14 14 15 13 12 10 9 9 4 4 5 4 4 6 3 4 2 2 2 3 5 2 3 3 3 2 2 2 0 0 1 3 3 2 4 2 3 7 7 5 4 10 8 7 7 6 5 6 6 6 5 5 3 5
15 15 14 13 12 5 2 5 8 4 4 2 4 4 4 3 3 3 2 2 4 2 1 4 3 1 2 0 1 2 3 3 5 4 2 2 4 5 7 6 7 7 7 6 5 5 6 5 4 3 6 6 5 6
15 13 6 11 6 8 5 9 4 3 4 3 2 1 2 3 5 4 0 3 2 1 2 0 2 1 4 2 2 5 4 4 2 3 2 3 5 5 5 6 6 6 5 5 4 4 3 5 4 2 4 6 6 4
13 3 9 11 8 4 11 5 3 3 5 2 5 1 3 2 5 5 4 4 1 4 2 1 2 6 1 2 3 3 3 1 2 1 1 2 4 7 6 6 6 6 6 6 5 5 3 2 3 4 6 6 5 3
3 4 12 10 6 5 3 3 4 4 5 4 2 5 3 3 3 4 4 2 4 3 1 3 2 1 4 3 2 1 1 2 1 1 2 2 4 4 3 4 5 5 5 5 4 4 3 5 5 3 3 4 4 4
6 9 15 14 8 5 4 0 3 4 7 2 3 1 2 3 4 0 0 1 1 2 1 2 3 4 4 1 1 1 1 2 3 4 3 0 2 4 6 4 3 4 5 3 4 2 2 2 1 2 2 2 1 2
13 15 12 11 9 3 2 2 2 3 3 4 1 2 3 4 2 1 1 1 3 3 2 4 5 3 1 1 1 1 2 3 3 3 2 2 2 4 5 3 3 4 2 3 2 3 3 2 2 3 2 2 2 3
7 3 11 7 3 3 3 3 1 3 2 2 1 0 4 3 2 1 1 1 2 3 2 2 2 1 2 2 0 1 2 2 1 1 3 4 3 2 3 3 3 3 2 2 3 3 3 2 3 3 2 2 2 3
3 11 4 3 3 2 2 2 2 1 2 3 2 1 2 2 2 2 2 3 2 3 2 1 0 0 2 1 1 1 3 3 1 1 3 3 3 3 3 3 3 3 3 2 1 2 3 3 3 2 2 3 3 2
10 5 4 2 4 2 3 2 2 2 1 4 2 3 3 2 2 1 1 2 2 1 0 1 2 3 4 3 1 2 3 3 2 2 2 2 3 3 2 3 1 2 3 2 1 2 3 5 4 3 2 2 3 3
7 4 4 3 3 4 2 1 2 2 2 2 1 4 3 2 0 2 3 3 3 0 1 2 2 2 1 1 1 1 2 2 2 2 1 1 1 3 2 2 2 2 2 4 3 3 3 3 4 3 3 3 3 3
5 2 3 2 2 5 3 1 1 2 4 3 2 4 2 1 1 2 3 3 1 1 1 2 1 1 1 1 0 1 0 1 1 2 3 2 1 2 3 2 3 2 2 2 4 4 3 3 3 3 3 3 4 4
4 2 5 6 1 5 6 5 5 7 4 2 5 2 1 2 1 5 3 2 2 1 0 1 2 2 1 1 1 1 2 2 1 2 3 2 1 1 1 1 2 3 1 1 2 4 5 4 3 4 4 5 4 3
3 4 2 2 2 4 1 1 1 2 4 5 2 0 2 2 5 3 2 2 1 1 1 1 2 3 3 3 3 3 2 3 4 4 2 2 3 3 3 1 2 3 3 3 2 1 2 4 3 3 3 2 3 3
4 4 7 4 2 0 3 2 4 4 3 2 2 3 4 4 4 3 3 0 1 2 3 3 3 3 4 4 3 3 4 2 3 1 0 2 2 2 3 3 4 8 3 2 3 2 1 1 2 3 3 3 2 3
2 1 3 3 2 2 1 2 3 2 1 2 2 2 2 1 2 1 0 0 1 1 2 2 2 2 3 2 1 1 2 2 1 1 1 1 2 2 1 2 2 2 1 2 4 3 3 3 4 4 4 3 1 1
2 1 4 2 3 2 2 0 2 1 0 1 1 1 0 1 1 0 1 1 1 1 2 3 3 1 2 1 3 2 2 0 1 1 2 1 2 2 2 3 3 2 1 0 2 4 7 5 5 4 3 4 4 3
2 2 4 3 3 1 1 1 1 1 1 1 1 1 1 2 2 2 1 1 1 1 1 2 2 1 1 1 1 1 2 0 1 3 2 2 2 2 3 3 3 2 0 3 4 3 3 3 3 3 4 5 5 4
3 2 4 4 1 1 0 1 2 1 1 1 1 0 1 1 1 2 1 1 0 1 2 1 2 2 1 1 2 3 5 4 4 3 4 2 3 4 3 2 1 2 4 5 4 4 4 5 4 4 3 3 3 4
3 2 3 4 3 3 2 2 1 2 1 1 2 1 1 1 2 3 1 2 2 2 2 3 3 2 3 3 3 3 4 4 7 9 8 8 7 5 0 1 2 3 6 5 4 4 5 5 3 3 3 3 4 5
Wind_Direction
245 260 232 231 231 244 263 277 286 296 298 301 307 305 306 307 308 315 276 222 247 275 280 270 276 262 291 283 286 309 324 342 352 44 198 252 282 272 2 223 185 175 162 187 119 213 281 167 106 163 216 272 189 191
251 222 225 235 243 248 261 273 286 293 299 304 299 308 307 306 308 313 294 204 223 244 265 280 277 275 262 251 263 218 239 255 239 322 330 335 300 266 251 273 90 243 207 183 189 210 233 225 210 247 180 185 206 182
231 223 217 229 242 254 261 276 289 296 299 303 307 305 307 307 311 302 296 278 255 268 281 274 240 256 234 231 214 247 238 200 223 210 233 231 239 136 200 242 224 234 165 236 66 286 252 233 248 222 184 228 203 191
215 205 207 220 237 248 263 281 288 295 301 306 304 308 305 309 303 306 290 267 243 283 281 288 296 271 231 216 209 210 243 249 255 227 266 252 179 191 252 259 213 201 136 227 261 271 252 250 231 256 195 212 202 159
196 197 207 214 235 255 268 281 292 299 307 305 304 301 303 304 305 303 281 243 229 216 265 282 300 288 342 261 225 227 241 246 243 228 202 222 219 168 238 326 247 193 189 208 236 243 195 264 267 179 213 208 200 170
197 194 202 214 235 251 272 285 296 307 307 305 304 307 307 305 310 10 331 313 340 159 295 307 282 321 333 339 297 246 233 240 198 197 213 213 223 195 214 212 259 239 255 216 252 234 232 257 264 195 211 213 189 188
192 189 199 218 233 252 272 290 304 305 305 312 312 306 309 306 298 172 209 199 148 171 282 309 308 282 284 312 307 321 264 224 183 210 221 200 211 201 128 208 294 334 317 309 303 284 276 199 241 234 210 192 165 148
178 189 203 217 234 250 272 288 297 304 315 316 313 311 310 316 334 2 261 329 127 334 125 255 274 350 25 310 319 331 339 310 15 329 343 2 209 316 241 289 348 350 325 336 5 352 276 297 303 267 185 135 156 188
182 191 197 213 231 247 271 287 300 310 320 321 312 315 1 33 42 252 303 299 176 157 228 152 191 280 352 269 249 338 59 346 294 48 26 314 345 224 291 310 320 334 313 295 309 296 298 263 283 282 189 189 196 203
182 185 202 215 225 248 271 281 313 313 332 327 6 31 330 255 310 321 7 169 132 146 55 240 52 267 3 357 304 356 41 318 321 302 311 51 275 312 275 300 278 303 320 330 332 332 347 324 321 309 248 280 237 207
179 193 206 211 225 248 271 286 310 321 17 30 359 259 249 322 40 32 298 106 38 157 191 254 208 261 293 62 260 112 249 301 31 280 80 332 302 262 325 297 295 314 317 290 250 274 258 262 277 287 298 269 232 190
185 199 209 211 229 253 266 286 311 12 191 237 250 337 357 26 18 64 295 313 34 73 327 93 278 239 287 253 90 331 209 35 257 315 64 309 256 292 337 332 327 322 313 304 249 278 288 287 278 267 271 274 235 172
189 199 212 231 240 256 270 287 319 333 14 28 38 20 42 305 19 75 344 327 356 340 295 342 305 231 330 331 359 38 38 233 50 38 234 234 301 311 330 322 321 310 306 304 320 302 320 312 335 318 307 299 128 100
183 205 218 232 254 265 280 314 150 86 70 69 70 319 144 295 225 97 208 204 259 209 304 287 257 202 257 4 149 337 237 59 33 17 243 267 309 321 318 302 324 324 331 328 329 331 342 350 342 358 356 331 102 113
198 217 228 240 248 264 273 107 117 71 103 131 91 243 232 258 255 224 210 352 255 217 41 310 298 186 283 314 144 98 16 279 210 229 242 317 317 301 319 325 317 329 336 335 328 340 343 348 23 10 6 359 66 104
215 236 242 240 223 177 135 106 54 83 49 109 235 298 291 49 292 324 343 259 224 287 347 3 250 328 257 198 173 222 146 229 267 232 296 319 319 314 300 311 316 317 321 318 329 334 341 12 31 358 350 35 32 52
228 174 189 165 161 161 134 89 65 74 167 190 255 146 158 171 212 227 171 228 163 70 266 281 242 229 339 242 255 192 214 318 347 308 311 300 295 309 315 318 333 336 341 350 349 5 3 320 324 26 37 359 4 5
167 183 163 180 134 93 31 72 94 122 230 232 180 235 212 202 180 261 236 227 110 172 113 241 328 275 232 230 259 60 5 327 290 264 266 289 312 311 307 314 331 331 329 342 357 344 5 49 55 17 326 320 332 5
170 174 186 176 141 108 123 258 114 208 229 217 280 258 216 251 256 3 182 273 190 189 351 287 241 221 232 215 279 350 23 355 309 310 294 252 1 331 331 337 335 356 11 7 13 27 5 25 59 325 312 346 25 336
183 182 182 150 110 105 102 282 66 130 231 235 42 271 221 215 262 343 300 194 144 161 196 223 215 210 195 38 350 293 291 318 299 309 322 344 342 353 7 348 326 305 326 355 351 13 354 355 8 5 344 348 5 338
85 203 132 94 57 69 143 157 272 197 205 205 266 211 260 9 0 359 228 201 92 206 239 212 201 180 290 256 88 305 308 345 312 203 245 299 338 340 339 339 350 9 44 357 13 338 5 351 304 322 339 310 286 268
192 115 87 48 89 49 96 27 163 156 122 228 329 90 301 324 258 241 178 70 217 225 197 249 281 311 308 294 318 37 330 309 330 306 317 309 324 354 352 343 356 336 329 301 319 320 314 300 315 321 343 327 357 7
101 82 67 81 91 65 238 17 102 350 145 272 5 344 263 249 220 74 64 227 248 237 268 277 273 253 245 264 146 86 38 2 351 345 306 272 257 256 281 300 277 320 319 317 281 297 311 317 325 346 1 40 42 38
63 76 144 156 108 196 24 42 40 45 13 353 136 276 261 212 78 65 242 246 248 254 23 308 289 295 196 195 116 30 347 14 343 305 253 188 321 288 212 256 295 280 268 288 303 309 318 340 356 23 47 65 46 53
100 202 140 172 348 86 102 75 316 102 235 227 196 283 253 32 166 238 235 267 290 264 279 302 284 356 311 339 96 345 163 37 37 294 268 167 228 340 336 296 278 276 312 354 7 347 339 4 32 54 52 62 78 53
190 241 140 182 243 148 184 154 200 209 190 223 231 275 30 99 123 245 232 228 230 210 307 352 343 332 261 190 280 291 261 182 195 256 274 182 144 141 243 323 332 316 23 61 359 355 358 11 38 66 59 43 48 74
167 227 271 254 132 121 55 331 51 129 184 209 229 122 97 218 243 254 290 227 183 156 232 239 209 225 245 272 260 258 251 222 220 248 230 220 215 205 177 199 284 266 322 328 334 345 346 354 39 75 92 47 29 31
181 156 163 202 97 321 149 156 170 199 192 203 100 195 197 208 237 244 217 217 5 319 275 255 227 221 238 247 249 272 294 290 281 279 252 255 223 215 226 243 244 275 274 259 252 244 250 345 113 108 89 84 356 355
99 244 99 92 106 69 113 167 184 206 186 169 175 199 232 229 213 228 279 312 306 294 322 348 316 280 263 240 240 228 231 309 13 117 79 318 350 318 291 297 300 304 264 252 287 181 171 128 120 106 118 128 143 36
198 171 97 89 133 166 215 188 166 163 5 26 1 164 215 272 244 62 254 300 352 307 291 273 262 318 326 358 314 322 229 214 41 71 145 211 245 294 321 321 321 316 294 123 55 47 66 50 47 34 32 33 29 13
119 76 84 70 110 248 125 144 92 113 110 94 10 342 61 333 299 240 224 203 233 281 308 334 336 238 209 330 6 357 346 231 296 311 258 256 279 282 271 278 278 287 31 102 93 87 89 59 68 86 63 44 11 16
55 96 128 111 124 234 199 200 157 129 114 126 66 51 22 42 12 289 210 139 323 287 263 276 280 280 218 255 259 236 241 277 289 286 291 267 256 254 262 274 311 111 96 98 102 98 91 103 90 79 80 42 10 7
61 57 55 107 119 189 196 188 134 114 62 90 61 22 16 165 191 265 261 194 208 234 261 255 256 259 261 256 248 270 271 259 273 274 264 243 235 238 183 103 114 104 109 102 94 105 103 99 79 71 65 35 3 355